This demonstration page uses our WeatherBlox Daily Observations layout. Learn more.

Left ArrowRight Arrow

Hourly Observations for August 10, 2017

Temp ( °F °C ) Dew Point ( °F °C ) Humidity (%) Winds ( mph kmh ) Pressure ( in mb ) Visibility ( mi km ) Precip ( " mm )
12:52 am 00:52 Mostly Cloudy 73 22.8 64 17.8 74 74 SSE 7 11 30.05 1018 10 16 0.00 0.00
1:52 am 01:52 Cloudy 72 22.2 65 18.3 79 79 SSE 7 11 30.06 1018 10 16 0.00 0.00
2:52 am 02:52 Cloudy 72 22.2 65 18.3 79 79 SSE 9 15 30.06 1018 10 16 0.00 0.00
3:52 am 03:52 Cloudy 72 22.2 66 18.9 82 82 SSE 8 13 30.06 1018 10 16 0.00 0.00
4:52 am 04:52 Cloudy 71 21.7 66 18.9 84 84 SSE 8 13 30.06 1018 10 16 0.00 0.00
5:52 am 05:52 Clear 70 21.1 66 18.9 87 87 S 8 13 30.06 1018 10 16 0.00 0.00
6:52 am 06:52 Sunny 69 20.6 67 19.4 93 93 SSE 7 11 30.07 1018 9 14 0.00 0.00
7:52 am 07:52 Mostly Cloudy 71 21.7 68 20 90 90 S 7 11 30.09 1019 9 14 0.00 0.00
8:27 am 08:27 Cloudy 72 22.2 70 21.1 94 94 S 12 19 30.09 1019 9 14 0.04 1.02
8:43 am 08:43 Mostly Cloudy 73 22.8 71 21.7 94 94 S 7 11 30.09 1019 9 14 0.04 1.02
8:52 am 08:52 Mostly Cloudy with Light Rain 73 22.8 70 21.1 90 90 S 8 13 30.10 1019 8 13 0.04 1.02
8:55 am 08:55 Mostly Cloudy with Light Rain 73 22.8 70 21.1 90 90 S 9 15 30.09 1019 3 4 0.00 0.03
9:04 am 09:04 Cloudy with Light Rain 72 22.2 70 21.1 94 94 S 10 17 30.09 1019 3 5 0.09 2.29
9:19 am 09:19 Cloudy with Rain 72 22.2 70 21.1 94 94 SSW 8 13 30.09 1019 4 6 0.10 2.54
9:26 am 09:26 Cloudy with Heavy Rain 71 21.7 71 21.7 100 100 SSW 8 13 30.12 1020 2 3 0.12 3.05
9:32 am 09:32 Cloudy with Heavy Rain 71 21.7 71 21.7 100 100 SSW 15 24 30.09 1019 1 1 0.25 6.35
9:38 am 09:38 Cloudy with Heavy Rain 71 21.7 70 21.1 96 96 S 10 17 30.12 1020 1 2 0.36 9.14
9:44 am 09:44 Cloudy with Light Rain 71 21.7 69 20.6 94 94 S 8 13 30.12 1020 3 5 0.40 10.16
9:52 am 09:52 Cloudy with Light Rain 71 21.7 69 20.6 94 94 SSW 9 15 30.11 1020 10 16 0.40 10.16
10:52 am 10:52 Cloudy with Light Rain 71 21.7 70 21.1 96 96 SSE 5 7 30.12 1020 9 14 0.00 0.03
11:18 am 11:18 Cloudy 74 23.3 72 22.2 94 94 S 7 11 30.12 1020 10 16 0.00 0.03
11:52 am 11:52 Cloudy 74 23.3 71 21.7 91 91 SSW 12 19 30.12 1020 10 16 0.00 0.03
11:59 am 11:59 Cloudy 74 23.3 71 21.7 91 91 SSW 9 15 30.12 1020 10 16 0.00 0.00
12:20 pm 12:20 Partly Cloudy 75 23.9 72 22.2 90 90 SSE 5 7 30.12 1020 10 16 0.00 0.00
12:52 pm 12:52 Sunny 78 25.6 71 21.7 79 79 S 7 11 30.09 1019 10 16 0.00 0.00
1:52 pm 13:52 Partly Cloudy 82 27.8 72 22.2 72 72 S 12 19 30.06 1018 10 16 0.00 0.00
2:52 pm 14:52 Sunny 84 28.9 71 21.7 65 65 SW 5 7 30.05 1018 10 16 0.00 0.00
3:52 pm 15:52 Sunny 83 28.3 71 21.7 67 67 SE 3 6 30.03 1017 10 16 0.00 0.00
4:52 pm 16:52 Mostly Cloudy 84 28.9 72 22.2 67 67 S 9 15 30.02 1017 10 16 0.00 0.00
5:52 pm 17:52 Sunny 84 28.9 71 21.7 65 65 SSW 8 13 30.02 1017 10 16 0.00 0.00
6:52 pm 18:52 Sunny 83 28.3 71 21.7 67 67 S 8 13 29.99 1016 10 16 0.00 0.00
7:52 pm 19:52 Sunny 79 26.1 72 22.2 79 79 SSW 3 6 30.01 1016 10 16 0.00 0.00
8:52 pm 20:52 Clear 78 25.6 72 22.2 82 82 SSE 6 9 30.01 1016 10 16 0.00 0.00
9:52 pm 21:52 Clear 77 25 72 22.2 85 85 SSE 10 17 30.02 1017 10 16 0.00 0.00
10:52 pm 22:52 Clear 76 24.4 72 22.2 88 88 S 7 11 30.03 1017 10 16 0.00 0.00
11:52 pm 23:52 Partly Cloudy 76 24.4 71 21.7 85 85 SSE 7 11 30.01 1016 10 16 0.00 0.00

Powered by AerisWeather